Theta_e
323 319 318 312 298 294 290 294 294 295 295 297 301 299 299 300 300 295 311 322 326 327 332 335 341 344 346 346 346 346 346 346 345 344 343 341 338 337 337 337 337 338 338 339 342 340 337 336 338
318 318 312 304 294 288 291 294 295 296 298 299 299 299 297 298 304 307 310 321 325 325 327 331 340 341 341 340 341 343 342 342 342 341 337 336 336 335 334 333 333 334 335 336 337 335 334 334 335
316 315 306 298 292 289 290 293 294 296 297 297 296 298 299 300 303 306 308 318 321 321 323 328 338 340 339 338 339 339 337 338 339 335 334 332 331 329 327 326 325 326 330 331 330 328 326 326 328
309 305 300 294 291 294 293 295 296 296 296 297 297 297 299 303 305 307 310 317 317 317 320 330 336 336 336 336 336 335 335 335 332 330 329 327 325 323 322 322 321 322 324 323 322 321 320 320 320
305 301 294 290 290 293 295 296 297 296 295 297 297 295 297 301 304 306 312 314 313 314 317 323 333 332 332 333 333 332 334 329 327 324 322 321 321 321 320 320 319 319 320 319 319 318 317 317 317
299 297 290 288 291 295 294 297 297 296 295 295 295 293 297 299 302 305 309 309 312 312 314 318 326 329 328 328 328 328 329 325 323 321 320 319 318 318 318 317 317 318 318 318 317 317 317 317 317
298 295 291 290 293 294 296 297 295 296 295 297 296 295 296 296 300 302 306 306 308 309 310 310 314 320 325 325 325 324 324 322 320 318 317 316 314 314 314 314 315 316 316 316 316 314 313 313 313
299 294 290 290 291 293 295 296 296 296 297 298 300 295 296 298 299 298 301 303 304 305 306 306 306 308 309 314 322 321 320 318 317 315 314 312 311 310 311 311 313 314 314 313 312 311 310 309 310
300 290 288 291 292 293 295 294 296 296 295 296 300 297 297 299 296 294 293 297 300 303 303 302 303 303 303 306 312 317 317 315 315 312 312 305 299 300 302 310 310 310 310 310 309 307 305 303 304
297 289 291 296 295 293 296 296 295 294 294 294 297 297 298 298 295 294 292 294 297 299 299 301 300 299 300 305 305 303 304 302 300 299 299 296 296 297 301 305 306 305 304 305 305 304 301 297 294
297 292 296 298 297 297 296 294 297 294 293 296 296 297 297 295 295 295 294 294 296 297 298 299 299 298 298 300 299 297 297 296 297 296 296 296 296 296 294 293 293 292 295 291 293 292 292 291 292
294 298 298 300 300 297 295 296 295 295 300 299 299 297 296 295 296 296 295 294 293 293 296 297 296 298 296 295 296 295 295 295 294 295 296 294 292 291 291 291 290 290 289 289 289 290 290 290 291
296 297 299 300 299 297 298 297 295 295 298 299 299 297 297 297 297 297 298 296 294 293 295 295 295 296 296 294 295 294 294 295 294 293 295 293 291 290 290 290 289 288 288 288 288 288 289 289 290
295 297 297 297 298 297 297 295 296 300 297 298 298 296 296 298 297 296 294 295 294 295 294 294 295 295 295 294 294 295 294 294 293 291 292 293 291 289 289 289 289 288 288 287 287 287 287 287 289
296 294 294 296 296 295 296 293 293 301 295 297 297 296 296 297 298 297 298 297 296 296 295 293 295 295 294 294 294 294 294 294 293 291 291 291 290 289 288 288 287 287 287 287 287 287 287 286 287
291 290 287 292 294 295 295 290 295 298 296 297 296 296 295 297 297 299 299 298 297 297 295 294 296 295 295 294 294 294 293 293 293 291 290 290 290 289 287 287 287 287 286 286 286 285 285 285 285
286 284 285 290 295 294 292 290 296 295 294 295 296 294 296 297 296 298 299 298 297 298 296 294 294 294 294 293 293 293 292 292 292 290 289 288 289 288 287 286 286 286 286 285 286 284 284 283 284
284 283 286 287 291 290 289 290 296 296 293 293 294 293 293 296 299 301 298 299 298 298 296 295 294 294 294 293 291 290 290 289 290 290 289 288 288 288 286 286 286 286 285 284 284 283 284 283 283
286 285 285 289 292 290 290 291 294 298 294 292 295 297 296 294 299 299 297 297 297 297 295 294 293 292 293 291 290 290 290 289 288 288 289 288 287 287 285 285 285 285 284 283 283 283 282 282 282
289 287 287 291 293 289 290 290 293 295 296 297 297 296 297 299 300 296 294 294 296 295 294 293 293 292 293 293 293 291 291 287 289 288 288 288 287 286 285 284 284 283 283 283 283 283 281 281 282
288 287 288 288 289 288 286 287 288 292 295 297 297 298 299 299 300 297 293 293 295 294 292 292 293 292 293 293 291 286 286 285 285 286 286 287 287 286 285 284 283 283 282 281 282 281 281 280 280
287 291 290 288 284 283 286 282 285 289 291 293 295 297 298 299 299 298 292 291 292 293 292 292 292 292 292 291 290 289 289 288 289 288 286 285 286 285 285 284 283 282 282 281 281 282 281 280 279
290 289 288 285 283 282 282 281 284 289 288 291 295 296 298 299 294 295 292 294 294 292 291 291 291 291 291 290 290 289 288 289 284 284 284 285 284 285 284 284 282 281 281 281 281 281 280 280 279
289 287 286 283 282 279 284 283 283 285 289 290 294 296 297 298 299 293 293 292 290 288 290 290 289 290 290 289 289 289 289 285 283 284 285 284 284 284 283 283 281 281 281 281 281 280 280 280 280
287 285 278 276 275 278 284 281 288 288 291 292 293 294 295 297 292 291 290 290 288 288 288 289 289 288 289 288 289 289 288 286 285 284 285 284 283 282 282 282 281 280 280 280 280 279 279 279 278
285 287 279 274 278 282 281 279 286 291 293 293 293 295 293 292 291 292 290 290 289 289 288 289 288 288 288 288 289 289 288 287 286 285 285 285 284 284 283 282 280 279 279 279 279 278 278 278 279
283 282 289 280 269 273 283 285 289 288 290 291 291 290 290 290 291 291 289 289 289 288 288 289 288 289 288 288 288 287 288 286 286 284 284 284 284 283 281 281 280 279 279 278 278 277 277 278 278
286 287 280 280 272 270 281 279 285 287 291 289 289 289 288 289 290 290 289 288 288 288 289 288 289 289 288 288 288 287 287 286 286 282 282 282 282 281 280 279 279 278 278 278 277 277 277 277 277
283 283 283 283 282 280 278 282 288 286 287 287 288 289 289 289 290 291 291 290 289 288 288 288 288 287 287 286 287 286 285 285 285 282 282 281 281 280 280 279 278 278 277 277 276 276 276 275 275
286 286 287 282 280 280 283 283 295 294 294 292 293 291 289 290 291 291 292 291 289 289 287 288 288 288 288 288 286 286 285 284 284 282 282 280 280 280 279 279 278 277 276 276 275 275 275 274 274
Wind_Speed
4 3 2 5 5 5 5 6 2 2 1 2 1 4 7 3 6 6 2 7 12 8 6 9 12 10 13 14 14 13 13 13 13 14 13 11 9 8 9 9 8 8 7 6 11 11 8 8 8
2 1 5 3 5 2 6 5 6 5 4 5 1 4 1 4 3 5 6 9 11 9 7 7 11 11 10 9 7 10 9 9 11 13 10 9 10 10 10 10 10 9 7 7 9 10 9 10 9
2 2 4 4 3 5 5 5 6 2 3 4 2 1 5 4 3 9 6 11 10 8 6 6 10 13 11 10 10 10 10 9 11 11 10 10 11 11 11 11 11 10 10 11 10 10 10 10 9
3 5 5 4 6 8 6 6 5 5 2 1 3 2 2 2 6 9 10 12 11 7 7 8 13 14 13 13 12 12 11 12 11 12 12 11 11 10 10 11 12 11 11 11 11 10 10 10 11
4 3 3 1 5 6 5 3 8 5 3 4 4 4 4 3 1 9 13 11 13 7 6 7 13 14 14 14 14 13 14 14 14 13 12 13 12 11 11 12 12 12 12 11 11 11 10 10 10
4 4 2 3 6 5 4 6 5 5 3 2 2 2 5 1 8 8 9 9 9 9 6 6 10 13 15 16 16 16 16 15 15 14 14 14 13 12 12 12 11 12 11 11 12 12 12 13 12
5 4 5 4 6 5 5 8 5 6 6 6 2 5 2 3 6 8 8 8 8 7 7 5 5 7 11 12 14 15 15 15 14 15 14 15 13 12 12 11 11 12 12 12 13 13 12 12 12
5 4 3 4 3 6 2 4 1 6 8 1 8 7 7 7 9 7 7 7 7 7 6 6 5 5 4 5 11 13 15 15 15 15 14 14 13 12 11 9 11 12 12 12 13 12 12 12 13
3 3 3 6 3 4 1 3 1 2 2 3 7 4 2 8 11 8 5 5 5 7 8 7 7 6 6 5 6 11 14 15 15 13 11 10 5 6 6 9 11 11 11 11 11 12 11 11 12
4 4 9 6 2 4 3 6 4 2 4 5 5 0 4 11 13 13 11 13 11 11 9 9 8 7 6 6 6 6 6 5 5 5 7 5 5 5 5 7 11 10 10 11 11 11 11 9 4
5 7 6 6 3 4 4 3 6 6 8 10 11 8 8 7 12 14 15 14 19 12 9 12 11 9 8 7 4 3 3 3 4 6 6 5 4 4 3 3 3 3 6 3 5 4 4 6 4
4 10 7 6 3 3 4 1 5 10 18 7 13 5 10 13 17 18 17 17 13 14 15 13 11 11 8 5 5 5 4 4 3 4 6 5 3 4 4 3 4 4 3 4 3 3 4 5 5
6 6 6 7 8 5 5 10 7 12 14 10 9 8 14 16 18 16 15 11 10 14 14 15 13 12 11 9 5 5 5 4 5 4 5 5 5 5 4 4 4 4 3 3 3 3 3 4 5
3 4 7 6 9 5 6 8 5 19 4 12 10 13 12 18 22 14 10 16 16 15 16 14 15 13 12 10 10 8 5 5 5 5 5 7 5 5 4 4 4 4 3 2 3 3 3 3 4
3 8 8 9 6 9 6 10 13 26 1 10 12 12 12 20 12 22 23 21 20 17 15 17 17 14 14 13 10 7 7 7 6 6 7 7 7 7 7 5 4 4 3 4 3 3 3 4 4
3 2 6 1 7 4 9 16 12 14 7 16 13 12 10 15 21 21 18 17 16 14 18 18 16 17 16 14 10 8 8 7 7 6 5 7 7 7 6 5 4 4 4 3 3 3 3 3 3
2 7 8 13 11 5 7 12 12 5 9 13 13 12 12 14 12 17 17 17 16 19 17 18 19 19 17 12 10 8 9 7 7 5 5 7 6 6 6 5 5 5 4 3 2 2 2 2 4
9 7 6 9 4 4 6 16 16 10 7 12 13 11 11 15 23 17 16 16 16 18 18 18 16 17 16 10 6 4 5 5 6 7 6 7 6 7 6 5 5 4 4 3 2 3 3 2 3
3 7 7 10 10 5 13 16 19 23 9 12 17 21 16 16 23 12 11 13 14 14 16 19 20 18 15 10 10 8 11 7 6 6 9 9 7 7 7 5 5 5 5 4 3 3 3 4 4
14 16 20 15 17 8 15 23 17 15 21 20 20 20 21 20 20 10 9 10 16 19 20 19 21 20 17 13 11 7 9 4 7 7 8 10 10 9 7 7 6 6 5 5 4 3 2 2 4
16 16 18 18 6 6 10 17 12 14 18 20 19 20 19 21 23 12 10 12 12 16 20 21 22 21 19 15 9 4 5 3 3 7 7 8 10 9 8 8 6 6 5 5 5 5 5 4 1
21 13 15 10 3 13 2 23 7 9 14 12 17 18 20 21 19 17 9 9 14 18 15 17 18 19 17 17 15 16 12 12 9 9 5 6 10 10 9 8 7 7 4 6 5 4 4 5 4
18 4 6 3 4 6 5 8 4 9 8 13 15 15 19 18 12 17 12 15 13 13 16 16 17 18 16 17 17 14 12 9 4 4 9 9 7 8 8 8 8 7 5 6 7 6 6 3 4
3 3 5 5 1 13 13 10 5 8 10 7 10 16 16 19 18 8 7 6 7 7 11 14 17 17 16 17 16 17 19 10 7 8 10 9 7 7 9 9 8 6 6 7 6 5 6 5 5
4 6 4 5 1 15 9 8 19 5 9 13 14 13 14 15 8 8 10 10 10 14 13 13 16 17 16 18 18 18 16 14 15 13 11 11 9 8 11 10 9 7 7 6 6 6 6 6 4
11 12 9 9 15 23 6 15 12 11 11 11 12 13 10 11 7 10 10 11 13 14 14 15 15 15 16 18 20 16 16 11 11 13 10 10 10 11 11 11 9 9 8 7 6 4 4 5 4
3 7 16 2 1 1 11 16 9 6 8 9 11 9 15 10 9 9 7 9 10 12 15 17 16 16 17 18 14 15 14 15 14 11 10 9 8 7 10 11 10 10 9 9 8 5 6 6 5
8 2 2 1 3 9 16 6 17 10 15 7 9 11 12 8 8 6 5 6 6 7 8 11 15 20 16 14 14 13 15 14 12 8 12 11 9 10 12 12 12 10 10 9 9 5 5 6 4
0 5 5 3 6 15 18 19 7 5 5 5 6 6 9 8 9 7 7 8 7 6 9 12 13 13 12 14 15 15 14 14 13 12 12 13 12 13 14 14 14 13 12 10 8 7 8 7 7
4 13 13 13 14 10 16 17 28 19 20 14 19 9 6 8 9 8 8 8 8 9 10 14 12 14 17 15 14 17 14 14 15 14 14 13 14 13 15 14 15 14 13 12 11 10 8 8 7
Wind_Direction
321 360 57 38 43 58 274 267 230 181 129 260 120 157 181 127 165 208 258 143 139 141 141 155 158 155 138 136 133 128 131 127 117 105 94 95 101 101 92 81 76 75 75 56 58 56 45 31 29
333 87 42 80 87 29 268 253 208 212 174 137 104 101 75 211 142 147 132 186 146 145 144 152 166 159 137 125 125 147 139 120 103 108 115 116 112 101 91 83 77 67 66 63 54 52 44 32 24
273 51 83 102 125 198 234 237 211 233 177 177 114 330 157 209 175 176 212 149 137 140 146 157 165 158 147 141 133 128 151 122 108 109 122 110 102 97 94 90 83 74 73 65 55 45 37 29 23
57 13 28 94 233 258 235 244 197 149 330 21 137 238 292 177 168 180 143 139 133 145 144 155 163 154 151 147 148 150 153 124 128 126 117 109 102 97 92 88 82 78 73 64 57 49 38 27 19
39 63 63 305 256 257 246 209 167 174 198 198 158 249 250 279 145 139 143 144 141 147 152 158 161 155 152 148 145 146 141 140 133 127 123 118 110 106 99 90 86 82 77 73 65 56 52 48 44
44 94 71 233 244 253 253 174 174 193 217 152 166 164 244 3 137 161 140 141 143 148 156 164 162 161 156 153 153 151 147 146 143 138 132 125 120 111 107 102 98 96 88 82 73 65 55 49 46
117 98 218 234 257 292 223 149 194 198 178 235 166 175 271 214 205 153 144 136 140 145 145 150 153 160 160 157 156 155 153 151 148 142 134 128 122 119 115 108 104 100 89 81 75 67 59 53 48
111 101 280 254 242 264 231 192 122 167 233 113 161 229 253 215 170 135 125 137 147 155 157 160 152 140 141 155 158 158 158 156 153 146 141 136 126 118 114 100 98 90 81 77 74 66 59 49 43
94 65 245 248 216 263 320 239 273 341 150 227 209 179 292 128 129 126 134 162 168 184 177 171 166 166 164 161 165 159 161 161 159 153 144 127 129 118 104 105 95 92 87 81 74 66 59 55 44
115 149 227 218 218 227 236 201 216 197 218 242 276 316 82 138 161 173 181 188 196 195 192 180 174 174 169 174 168 160 163 155 148 154 142 136 132 126 113 95 93 88 75 72 67 58 50 46 42
185 214 225 263 251 198 232 235 200 194 250 216 211 211 163 168 185 192 201 198 201 194 187 189 180 177 174 178 168 171 165 161 162 158 150 146 128 120 118 98 99 92 71 55 54 49 43 38 34
208 239 224 263 258 273 237 246 239 197 241 208 226 173 165 186 195 201 206 204 190 189 191 185 183 179 183 161 176 176 171 170 173 172 159 143 145 142 138 131 123 102 80 81 68 48 43 33 26
220 247 241 248 275 260 297 248 241 257 247 243 236 179 190 199 209 214 214 211 193 198 193 190 179 181 181 177 174 177 182 175 177 170 173 155 160 157 146 145 126 117 126 104 78 65 52 37 12
256 262 267 271 254 247 216 268 143 268 205 239 241 223 207 206 211 210 207 210 199 200 196 184 187 183 176 183 183 184 175 171 172 176 183 175 162 152 155 142 142 131 124 126 109 83 59 28 16
305 303 304 238 233 235 157 285 222 248 165 257 251 240 220 221 208 215 215 210 199 203 187 187 184 180 182 185 183 178 181 171 180 182 182 177 168 172 157 152 150 152 145 120 94 67 52 34 10
307 335 310 152 135 245 148 262 243 249 218 257 255 253 236 238 218 226 220 215 202 192 189 185 186 185 184 184 180 179 181 174 183 179 177 183 171 164 150 147 153 158 139 130 110 75 56 28 7
300 242 223 303 205 149 182 248 265 252 207 256 264 254 251 254 243 231 215 208 194 194 185 187 186 184 183 179 177 176 175 177 181 172 177 179 172 165 151 152 160 153 142 125 118 82 81 26 348
218 217 250 246 233 183 231 254 272 266 217 238 263 269 254 253 250 241 212 207 198 193 188 185 182 179 177 169 154 150 169 179 176 183 180 173 175 168 156 153 155 146 137 127 103 102 52 39 331
197 218 230 254 264 217 233 244 252 269 254 252 253 257 253 245 254 244 207 197 193 192 184 183 176 177 168 170 171 178 193 189 190 182 181 174 175 171 163 162 157 157 154 157 135 107 78 31 337
242 256 260 267 265 202 253 257 258 260 265 256 254 257 251 253 259 240 210 186 190 191 189 182 183 175 180 179 180 181 177 185 187 185 184 181 180 174 167 163 165 163 148 140 137 144 124 84 3
230 235 250 251 300 240 283 268 251 249 256 264 254 244 255 250 253 251 212 200 194 192 188 184 183 179 180 175 158 96 93 73 156 193 188 192 180 174 168 170 162 163 154 160 165 163 156 143 77
260 227 254 260 280 270 93 291 212 234 245 247 253 259 248 252 256 256 206 197 194 200 187 183 179 177 180 171 175 181 189 191 199 192 176 179 182 180 175 169 164 163 164 164 167 170 161 133 140
259 235 246 235 233 326 204 257 171 202 241 248 254 240 257 260 230 240 207 209 204 175 180 178 175 179 178 180 185 186 196 198 147 147 160 180 183 184 178 172 166 171 170 167 166 165 164 146 139
128 62 24 49 39 267 212 209 66 167 205 247 250 255 252 262 261 218 220 159 165 160 171 175 177 182 180 182 186 192 199 179 157 172 180 186 183 183 184 174 169 168 171 173 170 169 167 156 142
139 110 297 315 54 253 195 222 259 253 220 212 237 247 247 252 236 195 182 183 167 172 173 176 181 189 183 183 192 196 198 189 190 182 186 180 183 188 191 176 173 175 174 170 155 164 168 165 158
208 198 183 206 261 271 143 250 268 225 237 228 236 260 294 283 225 215 197 179 185 188 177 177 188 192 190 191 202 198 197 192 198 189 188 193 196 190 176 181 169 161 165 163 162 161 172 166 157
168 192 231 298 70 37 257 275 284 230 280 292 293 295 266 255 257 244 203 192 183 186 189 189 185 195 203 204 197 200 196 197 198 191 184 183 179 173 166 172 170 167 165 168 166 173 174 167 162
174 177 70 207 194 258 273 239 261 289 275 287 308 307 300 290 259 251 237 222 197 197 203 199 199 203 200 196 200 200 201 197 194 172 186 181 169 163 166 170 168 167 168 172 169 170 178 167 155
247 234 220 219 206 244 257 271 227 197 173 288 295 328 310 305 284 239 229 226 220 189 194 205 213 206 197 194 198 195 197 193 190 187 184 177 166 170 173 174 168 171 172 174 171 168 173 174 167
222 260 242 244 250 233 255 252 281 277 283 276 284 296 288 262 260 241 235 234 212 215 207 213 211 209 213 205 197 202 194 186 190 188 186 171 174 174 174 173 172 171 172 171 175 178 175 182 171